Russellville, AR

2:44 PM CDT on October 18, 2019 (GMT -0500)
Russellville Regional

Weather History for KRUE - September, 2019

Change the Weather History Date:

Wednesday, September 18, 2019

  Actual Average (WUND) Record (WUND)
Temperature  
Mean Temperature 82 °F -  
Max Temperature 96 °F - - (-1)
Min Temperature 69 °F - - (-1)
Cooling Degree Days 17    
Growing Degree Days 32 (Base 50)    
Moisture  
Dew Point 67 °F    
Average Humidity 67    
Maximum Humidity 90    
Minimum Humidity 37    
Precipitation  
Precipitation 0.00 in - - ()
Sea Level Pressure  
Sea Level Pressure 29.95 in    
Wind  
Wind Speed 1 mph (East)    
Max Wind Speed 10 mph    
Max Gust Speed -    
Visibility 10 miles    
Events      
Averages and records for this station are not official NWS values.
T = Trace of Precipitation, MM = Missing Value Source: NWS Daily Summary

Daily Weather History Graph

Daily Weather History Graph

Search for Another Location

Airport or City:

Astronomy

Sep. 18, 2019 Rise Set
Actual Time 6:57 AM CDT 7:15 PM CDT
Civil Twilight 6:31 AM CDT 7:40 PM CDT
Nautical Twilight 6:02 AM CDT 8:10 PM CDT
Astronomical Twilight 5:31 AM CDT 8:40 PM CDT
Moon 9:58 PM CDT 10:52 AM CDT
Length of Visible Light 13h 08m
Length of Day
12h 18m
Waning Gibbous, 82% of the Moon is Illuminated
Sep 18
Waning Gibbous
Sep 21
Last Quarter
Sep 28
New
Oct 5
First Quarter
Oct 13
Full

Hourly Weather History & Observations

Time (CDT) Temp. Heat Index Dew Point Humidity Pressure Visibility Wind Dir Wind Speed Gust Speed Precip Events Conditions
12:53 AM 73.0 °F - 68.0 °F 84% 29.94 in 10.0 mi Calm Calm - N/A   Clear
1:53 AM 73.0 °F - 68.0 °F 84% 29.95 in 10.0 mi Calm Calm - N/A   Clear
2:53 AM 71.1 °F - 68.0 °F 90% 29.95 in 10.0 mi Calm Calm - N/A   Clear
3:53 AM 71.1 °F - 66.9 °F 87% 29.95 in 10.0 mi Calm Calm - N/A   Clear
4:53 AM 70.0 °F - 66.9 °F 90% 29.95 in 10.0 mi Calm Calm - N/A   Clear
5:53 AM 69.1 °F - 66.0 °F 90% 29.95 in 9.0 mi Calm Calm - N/A   Clear
6:53 AM 69.1 °F - 66.0 °F 90% 29.96 in 9.0 mi Calm Calm - N/A   Clear
7:53 AM 71.1 °F - 68.0 °F 90% 29.98 in 9.0 mi Calm Calm - N/A   Clear
8:53 AM 79.0 °F - 66.9 °F 66% 29.99 in 10.0 mi Calm Calm - N/A   Clear
9:53 AM 84.0 °F 86.3 °F 66.0 °F 55% 30.00 in 10.0 mi SE 3.5 mph - N/A   Clear
10:53 AM 87.1 °F 89.2 °F 66.0 °F 49% 29.99 in 10.0 mi ESE 5.8 mph - N/A   Clear
11:53 AM 91.0 °F 94.3 °F 66.9 °F 45% 29.98 in 10.0 mi Calm Calm - N/A   Clear
12:53 PM 93.0 °F 96.4 °F 66.9 °F 42% 29.96 in 10.0 mi ENE 10.4 mph - N/A   Clear
4:53 PM 95.0 °F 97.4 °F 64.9 °F 37% 29.89 in 10.0 mi East 4.6 mph - N/A   Clear
5:53 PM 93.0 °F 96.4 °F 66.9 °F 42% 29.90 in 10.0 mi East 4.6 mph - N/A   Partly Cloudy
7:53 PM 84.9 °F 88.2 °F 68.0 °F 57% 29.91 in 10.0 mi East 3.5 mph - N/A   Clear
8:53 PM 82.0 °F 84.9 °F 68.0 °F 62% 29.92 in 10.0 mi East 3.5 mph - N/A   Clear
9:53 PM 81.0 °F 83.3 °F 66.9 °F 62% 29.93 in 10.0 mi Calm Calm - N/A   Clear
10:53 PM 82.0 °F 83.8 °F 64.9 °F 56% 29.93 in 10.0 mi East 4.6 mph - N/A   Clear
11:53 PM 81.0 °F 82.7 °F 64.9 °F 58% 29.94 in 10.0 mi SSE 3.5 mph - N/A   Partly Cloudy